Mona Airport

Jump to: basic info | weather | comments

Related pages: nearby airports | nearby navaids

Basic information (top)

Location: lon 18.075300, lat -67.931000, elev 1 ft / 0 m msl
Status: small_airport

Weather (top)

Current conditions for Punta Cana International Airport 38nm (71km) NW (rec'd 2014/09/01 13:00Z):

MDPC 011300Z 13006KT 9999 FEW022 29/25 Q1017

Airport forecast for Punta Cana International Airport 38nm (71km) NW (rec'd 2014/08/31 00:20Z):

TAF MDPC 312200Z 0100/0124 11008KT 9999 SCT020 BKN300 PROB30 0100/0106 8000 SH SCT018 SCT070

Latest comments (top)

No comments yet for Mona Airport

More... (top)

See also NOTAMs and nearby airports and navaids, or visit the Mona Airport page at the main OurAirports website..